Tracking 20719 objects as of 26-May-2020
HD Live streaming from Space Station
objects crossing your sky now

IRIDIUM 42

Track IRIDIUM 42 now!
10-day predictions
IRIDIUM 42 is classified as:


NORAD ID: 25077
Int'l Code: 1997-077A
Perigee: 781.8 km
Apogee: 785.3 km
Inclination: 86.4 °
Period: 100.4 minutes
Semi major axis: 7154 km
RCS: 3.3675 m2 (large)
Launch date: December 8, 1997
Source: United States (US)
Launch site: Taiyaun Space Center, China (TSC)
aabbcc
Your satellite tracking list
Your tracking list is empty




NASA's NSSDC Master Catalog

Two Line Element Set (TLE):
1 25077U 97077A   20146.47398927 +.00000033 +00000-0 +47404-5 0  9993
2 25077 086.3941 293.0954 0002479 081.5916 278.5561 14.34596752176057
Source of the keplerian elements: AFSPC